Weather History for Paynesville, MN

Change the Weather History Date:

Wednesday, April 3, 2013

  Actual Average (KLJF) Record (KLJF)
Temperature  
Mean Temperature 30 °F -  
Max Temperature 44 °F 49 °F 75 °F (1981)
Min Temperature 16 °F 28 °F 2 °F (1975)
Degree Days  
Heating Degree Days 36    
Moisture  
Dew Point 24 °F    
Average Humidity 75    
Maximum Humidity 94    
Minimum Humidity 61    
Precipitation  
Precipitation 0.00 in - - ()
Sea Level Pressure  
Sea Level Pressure 30.20 in    
Wind  
Wind Speed 6 mph (SSE)    
Max Wind Speed 18 mph    
Max Gust Speed 26 mph    
Visibility 10 miles    
Events      
Averages and records for this station are not official NWS values.
T = Trace of Precipitation, MM = Missing Value Source: NWS Daily Summary

Daily Weather History Graph

Daily Weather History Graph

Search for Another Location

Airport:

Trip Planner

Search our weather history database for the weather conditions in past years. The results will help you decide how hot, cold, wet, or windy it might be!

Date:

Astronomy

Apr. 03, 2013 Rise Set
Actual Time 6:55 AM CDT 7:49 PM CDT
Civil Twilight 6:25 AM CDT 8:20 PM CDT
Nautical Twilight 5:49 AM CDT 8:55 PM CDT
Astronomical Twilight 5:11 AM CDT 9:33 PM CDT
Moon 2:54 AM CDT (4/3) 12:45 PM CDT (4/3)
Length of Visible Light 13h 54m
Length of Day
12h 54m
Last Quarter, 44% of the Moon is Illuminated
Apr 3
Last Quarter
Apr 10
New
Apr 18
First Quarter
Apr 25
Full
May 2
Last Quarter

Hourly Weather History & Observations

Time (CDT) Temp. Windchill Dew Point Humidity Pressure Visibility Wind Dir Wind Speed Gust Speed Precip Events Conditions
12:13 AM 19.9 °F - 17.8 °F 91% 30.35 in 10.0 mi Calm Calm - N/A   Clear
12:33 AM 18.3 °F - 16.0 °F 91% 30.35 in 10.0 mi Calm Calm - N/A   Clear
12:53 AM 19.2 °F - 16.5 °F 89% 30.35 in 10.0 mi Calm Calm - N/A   Clear
1:13 AM 19.8 °F - 17.2 °F 90% 30.35 in 10.0 mi Calm Calm - N/A   Clear
1:33 AM 19.0 °F - 16.5 °F 90% 30.35 in 10.0 mi Calm Calm - N/A   Clear
1:53 AM 17.6 °F - 15.8 °F 93% 30.35 in 10.0 mi Calm Calm - N/A   Clear
2:13 AM 18.1 °F - 16.7 °F 94% 30.35 in 10.0 mi Calm Calm - N/A   Clear
2:33 AM 18.5 °F - 16.7 °F 93% 30.34 in 10.0 mi Calm Calm - N/A   Clear
2:53 AM 18.1 °F - 16.0 °F 91% 30.34 in 10.0 mi Calm Calm - N/A   Clear
3:13 AM 17.8 °F - 16.0 °F 93% 30.33 in 10.0 mi Calm Calm - N/A   Clear
3:33 AM 16.9 °F - 15.1 °F 93% 30.33 in 10.0 mi Calm Calm - N/A   Clear
4:13 AM 16.5 °F - 14.7 °F 93% 30.33 in 10.0 mi Calm Calm - N/A   Clear
4:33 AM 17.2 °F - 15.6 °F 93% 30.33 in 10.0 mi Calm Calm - N/A   Clear
4:52 AM 16.2 °F - 14.5 °F 93% 30.33 in 10.0 mi Calm Calm - N/A   Clear
5:13 AM 16.3 °F - 14.9 °F 94% 30.33 in 10.0 mi Calm Calm - N/A   Clear
5:33 AM 16.5 °F - 14.7 °F 93% 30.33 in 10.0 mi Calm Calm - N/A   Clear
5:53 AM 16.2 °F - 14.7 °F 94% 30.33 in 10.0 mi Calm Calm - N/A   Clear
6:13 AM 16.7 °F - 14.9 °F 93% 30.33 in 10.0 mi Calm Calm - N/A   Clear
6:33 AM 18.1 °F 10.0 °F 15.6 °F 90% 30.33 in 10.0 mi SE 5.8 mph - N/A   Clear
6:53 AM 19.2 °F 11.3 °F 15.6 °F 86% 30.32 in 10.0 mi SE 5.8 mph - N/A   Clear
7:13 AM 19.0 °F 11.1 °F 15.6 °F 87% 30.33 in 10.0 mi SE 5.8 mph - N/A   Clear
7:33 AM 20.1 °F 12.3 °F 15.8 °F 83% 30.33 in 10.0 mi SE 5.8 mph - N/A   Clear
7:53 AM 21.2 °F 12.6 °F 15.8 °F 80% 30.33 in 10.0 mi SE 6.9 mph - N/A   Clear
8:13 AM 22.5 °F 14.1 °F 15.8 °F 76% 30.33 in 10.0 mi SE 6.9 mph - N/A   Clear
8:33 AM 24.4 °F 14.9 °F 15.8 °F 70% 30.33 in 10.0 mi SE 9.2 mph - N/A   Clear
8:53 AM 25.7 °F 16.4 °F 16.5 °F 68% 30.33 in 10.0 mi SSE 9.2 mph - N/A   Clear
9:13 AM 27.0 °F 18.0 °F 17.4 °F 67% 30.32 in 10.0 mi SSE 9.2 mph - N/A   Clear
9:33 AM 28.6 °F 20.7 °F 18.3 °F 65% 30.31 in 10.0 mi SSE 8.1 mph - N/A   Clear
9:53 AM 30.4 °F 21.5 °F 19.4 °F 64% 30.30 in 10.0 mi SE 10.4 mph - N/A   Clear
10:13 AM 31.3 °F 23.3 °F 19.9 °F 63% 30.30 in 10.0 mi SSE 9.2 mph 18.4 mph N/A   Clear
10:32 AM 32.0 °F 23.6 °F 20.7 °F 63% 30.29 in 10.0 mi SE 10.4 mph 17.3 mph N/A   Clear
11:13 AM 32.7 °F 22.5 °F 21.9 °F 64% 30.28 in 10.0 mi SSE 15.0 mph 20.7 mph N/A   Clear
11:33 AM 34.0 °F 25.0 °F 22.8 °F 64% 30.26 in 10.0 mi SE 12.7 mph 20.7 mph N/A   Clear
11:53 AM 34.9 °F 26.2 °F 23.2 °F 62% 30.26 in 10.0 mi SE 12.7 mph 20.7 mph N/A   Clear
12:12 PM 35.1 °F 25.9 °F 22.8 °F 61% 30.24 in 10.0 mi SE 13.8 mph 20.7 mph N/A   Clear
12:33 PM 36.0 °F 26.7 °F 23.9 °F 62% 30.24 in 10.0 mi SE 15.0 mph 20.7 mph N/A   Clear
12:53 PM 36.5 °F 27.0 °F 24.1 °F 61% 30.23 in 10.0 mi SE 16.1 mph 21.9 mph N/A   Clear
1:13 PM 37.0 °F 27.7 °F 25.3 °F 63% 30.21 in 10.0 mi SSE 16.1 mph 23.0 mph N/A   Clear
1:33 PM 37.2 °F 28.3 °F 25.9 °F 64% 30.21 in 10.0 mi SE 15.0 mph 23.0 mph N/A   Clear
1:53 PM 38.1 °F 29.5 °F 26.6 °F 63% 30.21 in 10.0 mi SE 15.0 mph 21.9 mph N/A   Clear
2:13 PM 38.8 °F 29.7 °F 27.5 °F 64% 30.19 in 10.0 mi SE 17.3 mph 20.7 mph N/A   Clear
2:33 PM 39.6 °F 31.7 °F 28.6 °F 65% 30.18 in 10.0 mi SSE 13.8 mph 20.7 mph N/A   Clear
2:53 PM 40.3 °F 32.2 °F 29.1 °F 64% 30.17 in 10.0 mi SSE 15.0 mph 26.5 mph N/A   Clear
3:13 PM 41.0 °F 33.5 °F 30.0 °F 65% 30.17 in 10.0 mi SSE 13.8 mph 24.2 mph N/A   Clear
3:33 PM 41.4 °F 33.6 °F 30.2 °F 65% 30.16 in 10.0 mi SSE 15.0 mph 25.3 mph N/A   Clear
3:53 PM 42.1 °F 33.9 °F 30.9 °F 65% 30.15 in 10.0 mi SSE 17.3 mph - N/A   Clear
4:13 PM 42.3 °F 35.1 °F 31.5 °F 66% 30.13 in 10.0 mi SSE 13.8 mph 25.3 mph N/A   Clear
4:33 PM 43.0 °F 34.8 °F 32.0 °F 65% 30.12 in 10.0 mi SSE 18.4 mph 24.2 mph N/A   Clear
4:53 PM 43.2 °F 35.6 °F 32.0 °F 65% 30.11 in 10.0 mi SSE 16.1 mph 24.2 mph N/A   Clear
5:12 PM 43.5 °F 37.1 °F 32.7 °F 66% 30.10 in 10.0 mi SSE 12.7 mph 26.5 mph N/A   Clear
5:33 PM 43.7 °F 37.3 °F 33.1 °F 66% 30.09 in 10.0 mi SSE 12.7 mph 19.6 mph N/A   Clear
5:53 PM 43.9 °F 37.5 °F 33.3 °F 66% 30.08 in 10.0 mi SSE 12.7 mph 21.9 mph N/A   Clear
6:12 PM 43.7 °F 36.9 °F 33.8 °F 68% 30.07 in 10.0 mi SSE 13.8 mph 17.3 mph N/A   Clear
6:33 PM 43.7 °F 36.3 °F 33.8 °F 68% 30.06 in 10.0 mi SSE 16.1 mph 20.7 mph N/A   Clear
6:53 PM 43.3 °F 36.5 °F 34.2 °F 70% 30.05 in 10.0 mi SSE 13.8 mph 20.7 mph N/A   Clear
7:13 PM 42.6 °F 35.9 °F 34.2 °F 72% 30.04 in 10.0 mi SE 12.7 mph 17.3 mph N/A   Clear
7:33 PM 42.1 °F 35.2 °F 34.2 °F 74% 30.03 in 10.0 mi SE 12.7 mph - N/A   Clear
7:53 PM 41.7 °F 34.8 °F 34.2 °F 75% 30.02 in 10.0 mi SSE 12.7 mph 18.4 mph N/A   Clear
8:13 PM 41.2 °F 33.7 °F 34.2 °F 76% 30.01 in 10.0 mi SSE 13.8 mph 20.7 mph N/A   Clear
8:33 PM 41.2 °F 34.1 °F 34.2 °F 76% 30.01 in 10.0 mi SSE 12.7 mph 19.6 mph N/A   Clear
8:53 PM 41.4 °F 34.0 °F 33.8 °F 74% 30.01 in 10.0 mi SSE 13.8 mph 17.3 mph N/A   Clear
9:13 PM 41.5 °F 34.6 °F 33.1 °F 72% 30.01 in 10.0 mi SSE 12.7 mph 19.6 mph N/A   Clear
9:33 PM 41.9 °F 34.3 °F 32.7 °F 70% 30.01 in 10.0 mi South 15.0 mph 24.2 mph N/A   Clear
9:53 PM 41.9 °F 34.0 °F 32.4 °F 69% 30.01 in 10.0 mi South 16.1 mph 21.9 mph N/A   Clear
10:13 PM 41.5 °F 32.9 °F 32.0 °F 69% 30.00 in 10.0 mi South 18.4 mph 24.2 mph N/A   Scattered Clouds
10:33 PM 41.4 °F 33.0 °F 32.0 °F 69% 29.99 in 10.0 mi South 17.3 mph 21.9 mph N/A   Scattered Clouds
10:52 PM 41.2 °F 33.0 °F 32.0 °F 70% 29.99 in 10.0 mi South 16.1 mph 23.0 mph N/A   Clear
11:13 PM 41.4 °F 33.3 °F 32.0 °F 69% 29.99 in 10.0 mi South 16.1 mph 24.2 mph N/A   Clear
11:33 PM 41.2 °F 33.0 °F 31.6 °F 69% 29.97 in 10.0 mi South 16.1 mph 24.2 mph N/A   Scattered Clouds
11:53 PM 41.4 °F 33.3 °F 31.6 °F 68% 29.98 in 10.0 mi South 16.1 mph 21.9 mph N/A   Mostly Cloudy